Airfield :
LOGIN :

Register | Disclaimer

   EN    FR    IT 

 










Legend :    VFR   Marginal VFR   IFR   Intensive IFR   Very Intensive IFR
Visi :
Ceiling :
>= 8 km
>= 3000ft
5 to 8 km
1000 to 3000 ft
1500m to 5 km
500 to 1000 ft
800 to 1500m
200 to 500 ft
< 800m
< 200 ft
Symbols :   Thunderstorms  Fog  Heavy snow  Heavy precipitations  Wind > 20 kt
SIGMETs :     Misc.  Thunderstorms  Icing  Turbulence  Mountain Waves  Volcanic Ashes







- Airport Elevation : 240 ft
- IATA code : VLC


LEVC - Valencia Manises

CURRENT METAR :
  • 180830Z 32006KT 9999 BKN020 09/06 Q1023 NOSIG

EXPIRED METARs :
  • 180800Z 30004KT 260V330 9999 BKN020 08/06 Q1023 NOSIG
  • 180730Z 31006KT 9999 BKN020 07/05 Q1023 NOSIG
  • 180700Z VRB02KT 9999 FEW025 BKN030 06/05 Q1022 NOSIG
  • 180630Z 31002KT 9999 BKN028 06/04 Q1022 NOSIG
  • 180600Z 28004KT 9999 BKN020 05/04 Q1022 NOSIG

TAF TAF LEVC
Valid from the 18 at 06:00 until the 19 at 06:00 UTC


180500Z 1806/1906 31005KT 9999 SCT025 TX17/1813Z TN04/1807Z
BECMG 1809/1811 09005KT
BECMG 1818/1820 31005KT
No reported NOTAMs for that airfield.



MET'MAP, your aeronautical weather chart ! - Copyright ORBIFLY December 2007 - Disclaimer

ORBIFLY MET'MAP TEAM :

Programming & Development : Alexandra Zaïnal
Concept & Development : Baudouin d'Aumeries
Co-Development & Prog : Marc-Olivier Méhu
Technical & hardware support : Manuel Goepfert

Contact : metmap@orbifly.com




SOURCES & CREDITS :

   NOAA